WA6MEM Weather Reports


Display with metric or nautical units.
time (UTC)temp
F
wind
direction
speed
MPH
gust
MPH
rain 1hr
in
rain 24hr
in
rain mn
in
humidity
%
barometer
mb
20260502164040 54 178 1.0 0.0 0.00 0.00 0.00 96 1013.8
20260502163541 54 205 2.0 0.0 0.00 0.00 0.00 96 1013.8
20260502163040 54 156 1.0 0.0 0.00 0.00 0.00 96 1013.8
20260502162543 54 173 1.0 0.0 0.00 0.00 0.00 96 1013.6
20260502162039 54 135 1.0 0.0 0.00 0.00 0.00 96 1013.6
20260502161539 54 125 1.0 0.0 0.00 0.00 0.00 96 1013.6
20260502161039 54 132 1.0 0.0 0.00 0.00 0.00 96 1013.8
20260502160541 54 179 0.0 0.0 0.00 0.00 0.00 96 1013.8
20260502152038 54 143 0.0 0.0 0.00 0.00 0.00 96 1013.4
20260502151536 54 143 1.0 0.0 0.00 0.00 0.00 96 1013.4
20260502151037 54 146 1.0 0.0 0.00 0.00 0.00 96 1013.4
20260502150536 54 134 0.0 0.0 0.00 0.00 0.00 96 1013.4
20260502130530 53 267 0.0 0.0 0.00 0.00 0.00 95 1012.4
20260502123532 54 174 2.0 0.0 0.00 0.00 0.00 96 1012.4
20260502123031 54 201 2.0 0.0 0.00 0.00 0.00 96 1012.4
20260502122528 54 171 2.0 0.0 0.00 0.00 0.00 96 1012.2
20260502122028 54 165 1.0 0.0 0.00 0.00 0.00 96 1012.2
20260502121538 54 196 1.0 0.0 0.00 0.00 0.00 96 1012.2
20260502121028 53 194 2.0 0.0 0.00 0.00 0.00 96 1012.0
20260502120528 53 189 2.0 0.0 0.00 0.00 0.00 95 1012.0
20260502115527 54 173 2.0 0.0 0.00 0.00 0.00 96 1011.9
20260502115027 54 159 2.0 0.0 0.00 0.00 0.00 96 1011.9
20260502114527 54 163 2.0 0.0 0.00 0.00 0.00 95 1011.9
20260502114027 54 200 2.0 0.0 0.00 0.00 0.00 95 1011.7
20260502113527 54 195 2.0 0.0 0.00 0.00 0.00 95 1011.7
20260502113026 54 184 2.0 0.0 0.00 0.00 0.00 95 1011.7
20260502112526 54 183 1.0 0.0 0.00 0.00 0.00 95 1011.7
20260502112025 54 196 1.0 0.0 0.00 0.00 0.00 95 1011.7
20260502111526 53 181 1.0 0.0 0.00 0.00 0.00 95 1011.7
20260502111025 53 213 1.0 0.0 0.00 0.00 0.00 95 1011.6
20260502110525 53 144 1.0 0.0 0.00 0.00 0.00 95 1011.6
20260502110032 53 167 2.0 0.0 0.00 0.00 0.00 95 1011.6
20260502105525 53 206 2.0 0.0 0.00 0.00 0.00 95 1011.5
20260502105025 53 194 2.0 0.0 0.00 0.00 0.00 95 1011.5
20260502104524 53 198 1.0 0.0 0.00 0.00 0.00 95 1011.5
20260502104024 53 196 1.0 0.0 0.00 0.00 0.00 95 1011.5
20260502103524 53 224 1.0 0.0 0.00 0.00 0.00 95 1011.5
20260502103024 53 159 0.0 0.0 0.00 0.00 0.00 95 1011.5
20260502102523 53 206 1.0 0.0 0.00 0.00 0.00 95 1011.5
20260502102023 53 193 1.0 0.0 0.00 0.00 0.00 95 1011.5
20260502101523 54 177 1.0 0.0 0.00 0.00 0.00 95 1011.5
20260502101023 54 178 1.0 0.0 0.00 0.00 0.00 95 1011.4
20260502100523 54 198 1.0 0.0 0.00 0.00 0.00 95 1011.4
20260502091520 54 193 1.0 0.0 0.00 0.00 0.00 95 1011.5
20260502091020 54 177 1.0 0.0 0.00 0.00 0.00 95 1011.8
20260502090519 54 171 1.0 0.0 0.00 0.00 0.00 95 1011.8
20260502071515 54 185 1.0 0.0 0.00 0.00 0.00 95 1012.4
20260502071012 54 196 0.0 0.0 0.00 0.00 0.00 95 1012.5
20260502070513 54 177 0.0 0.0 0.00 0.00 0.00 95 1012.5
20260502070020 54 172 0.0 0.0 0.00 0.00 0.00 95 1012.5
20260502065513 54 172 1.0 0.0 0.00 0.00 0.00 95 1012.4
20260502065015 54 172 1.0 0.0 0.00 0.00 0.00 95 1012.4
20260502064513 54 196 0.0 0.0 0.00 0.00 0.00 95 1012.4
20260502064011 54 188 0.0 0.0 0.00 0.00 0.00 95 1012.5
20260502063512 54 188 1.0 0.0 0.00 0.00 0.00 95 1012.5
20260502063021 54 186 1.0 0.0 0.00 0.00 0.00 95 1012.5
20260502062511 54 193 0.0 0.0 0.00 0.00 0.00 95 1012.3
20260502062010 54 193 0.0 0.0 0.00 0.00 0.00 95 1012.3
20260502061510 53 192 0.0 0.0 0.00 0.00 0.00 95 1012.3
20260502061010 53 200 0.0 0.0 0.00 0.00 0.00 95 1012.4
20260502060510 54 200 1.0 0.0 0.00 0.00 0.00 95 1012.4
20260502060017 54 196 0.0 0.0 0.00 0.00 0.00 95 1012.4
20260502055510 54 200 0.0 0.0 0.00 0.00 0.00 95 1012.3
20260502055010 54 200 0.0 0.0 0.00 0.00 0.00 95 1012.3
20260502054520 54 200 0.0 0.0 0.00 0.00 0.00 95 1012.3
20260502054009 54 200 0.0 0.0 0.00 0.00 0.00 95 1012.4
20260502053509 54 200 1.0 0.0 0.00 0.00 0.00 95 1012.4
20260502053009 54 173 1.0 0.0 0.00 0.00 0.00 95 1012.4
20260502052509 54 173 1.0 0.0 0.00 0.00 0.00 95 1012.5
20260502052010 54 159 1.0 0.0 0.00 0.00 0.00 94 1012.5
20260502051509 54 198 2.0 0.0 0.00 0.00 0.00 94 1012.5
20260502051008 54 215 2.0 0.0 0.00 0.00 0.00 94 1012.5
20260502050508 54 170 1.0 0.0 0.00 0.00 0.00 94 1012.5
20260502050011 54 167 1.0 0.0 0.00 0.00 0.00 94 1012.5
20260502045508 54 192 1.0 0.0 0.00 0.00 0.00 94 1012.4
20260502045008 54 167 2.0 0.0 0.00 0.00 0.00 94 1012.4
20260502044507 55 171 2.0 0.0 0.00 0.00 0.00 95 1012.4
20260502044008 55 182 1.0 0.0 0.00 0.00 0.00 94 1012.3
20260502043508 55 244 1.0 0.0 0.00 0.00 0.00 94 1012.3
20260502043008 55 234 1.0 0.0 0.00 0.00 0.00 94 1012.3
20260502042508 55 190 0.0 0.0 0.00 0.00 0.00 94 1012.1
20260502042008 55 144 0.0 0.0 0.00 0.00 0.00 94 1012.1
20260502041507 55 144 0.0 0.0 0.00 0.00 0.00 94 1012.1
20260502041006 55 223 1.0 0.0 0.00 0.00 0.00 94 1011.8
20260502040506 55 268 2.0 0.0 0.00 0.00 0.00 94 1011.8
20260502040009 55 199 2.0 0.0 0.00 0.00 0.00 94 1011.8
20260502035507 55 168 2.0 0.0 0.00 0.00 0.00 94 1011.7
20260502035006 55 169 3.0 0.0 0.00 0.00 0.00 94 1011.7
20260502034506 55 202 3.0 0.0 0.00 0.00 0.00 94 1011.7
20260502034007 55 187 3.0 0.0 0.00 0.00 0.00 94 1011.3
20260502033509 55 218 3.0 0.0 0.00 0.00 0.00 94 1011.3
20260502033008 55 165 4.0 0.0 0.00 0.00 0.00 94 1011.3
20260502032506 55 220 5.0 0.0 0.00 0.00 0.00 94 1011.2
20260502032005 55 165 4.0 0.0 0.00 0.00 0.00 94 1011.2
20260502031505 55 190 3.0 0.0 0.00 0.00 0.00 94 1011.2
20260502031005 55 172 3.0 0.0 0.00 0.00 0.00 94 1011.1
20260502030505 55 236 4.0 0.0 0.00 0.00 0.00 94 1011.1
20260502030006 55 233 5.0 0.0 0.00 0.00 0.00 94 1011.1
20260502025504 56 254 5.0 0.0 0.00 0.00 0.00 94 1011.3
20260502025004 56 232 4.0 0.0 0.00 0.00 0.00 94 1011.3
20260502024505 56 286 3.0 0.0 0.00 0.00 0.00 94 1011.3
20260502024007 56 226 3.0 0.0 0.00 0.00 0.00 94 1011.2
20260502023504 56 237 4.0 0.0 0.00 0.00 0.00 94 1011.2
20260502023004 56 208 3.0 0.0 0.00 0.00 0.00 94 1011.2
20260502022504 56 224 4.0 0.0 0.00 0.00 0.00 93 1011.2
20260502022007 56 213 4.0 0.0 0.00 0.00 0.00 93 1011.2
20260502021506 56 221 4.0 0.0 0.00 0.00 0.00 93 1011.2
20260502021006 56 211 3.0 0.0 0.00 0.00 0.00 93 1010.8
20260502020507 56 209 4.0 0.0 0.00 0.00 0.00 93 1010.8
20260502020003 57 187 4.0 0.0 0.00 0.00 0.00 93 1010.8
20260502015503 57 246 4.0 0.0 0.00 0.00 0.00 93 1010.8
20260502015003 57 182 5.0 0.0 0.00 0.00 0.00 93 1010.8
20260502014503 57 228 5.0 0.0 0.00 0.00 0.00 92 1010.8
20260502014002 57 161 4.0 0.0 0.00 0.00 0.00 92 1010.8
20260502013504 57 194 4.0 0.0 0.00 0.00 0.00 92 1010.8
20260502013003 57 216 5.0 0.0 0.00 0.00 0.00 92 1010.8
20260502012502 57 262 5.0 0.0 0.00 0.00 0.00 92 1011.0
20260502012002 57 208 5.0 0.0 0.00 0.00 0.00 92 1011.0
20260502011502 57 224 4.0 0.0 0.00 0.00 0.00 92 1011.0
20260502011002 57 211 4.0 0.0 0.00 0.00 0.00 92 1010.7
20260502010501 57 229 3.0 0.0 0.00 0.00 0.00 92 1010.7
20260502010001 57 306 5.0 0.0 0.00 0.00 0.00 92 1010.7
20260502005501 57 164 6.0 0.0 0.00 0.00 0.00 91 1010.7
20260502005001 58 293 5.0 0.0 0.00 0.00 0.00 90 1010.7
20260502004501 58 294 5.0 0.0 0.00 0.00 0.00 90 1010.6
20260502004001 59 278 4.0 0.0 0.00 0.00 0.00 89 1010.6
20260502003600 59 248 4.0 0.0 0.00 0.00 0.00 89 1010.6
20260502003100 60 249 3.0 0.0 0.00 0.00 0.00 88 1010.6
20260502002559 60 209 4.0 0.0 0.00 0.00 0.00 89 1010.6
20260502002059 60 245 5.0 0.0 0.00 0.00 0.00 88 1010.6
20260502001559 61 317 4.0 0.0 0.00 0.00 0.00 86 1010.6
20260502001059 61 271 4.0 0.0 0.00 0.00 0.00 86 1010.5
20260502000559 62 236 4.0 0.0 0.00 0.00 0.00 85 1010.5
20260502000115 62 305 4.0 0.0 0.00 0.00 0.00 84 1010.5
20260501235558 62 290 3.0 0.0 0.00 0.00 0.00 83 1010.5
20260501235102 62 279 3.0 0.0 0.00 0.00 0.00 83 1010.5
20260501234558 62 248 4.0 0.0 0.00 0.00 0.00 84 1010.5
20260501234058 62 262 4.0 0.0 0.00 0.00 0.00 82 1010.6
20260501233602 63 206 4.0 0.0 0.00 0.00 0.00 82 1010.6
20260501233100 63 217 5.0 0.0 0.00 0.00 0.00 81 1010.6
20260501232557 63 271 4.0 0.0 0.00 0.00 0.00 81 1010.7
20260501232058 63 286 3.0 0.0 0.00 0.00 0.00 79 1010.7
20260501231556 64 250 3.0 0.0 0.00 0.00 0.00 78 1010.7
20260501231056 64 254 4.0 0.0 0.00 0.00 0.00 78 1010.8
20260501230556 64 215 3.0 0.0 0.00 0.00 0.00 78 1010.8
20260501230056 65 360 3.0 0.0 0.00 0.00 0.00 77 1010.8
20260501225555 65 204 3.0 0.0 0.00 0.00 0.00 78 1011.0
20260501225053 64 230 4.0 0.0 0.00 0.00 0.00 79 1011.0
20260501224553 64 221 4.0 0.0 0.00 0.00 0.00 80 1011.0
20260501224052 64 207 4.0 0.0 0.00 0.00 0.00 80 1011.0
20260501223553 64 196 4.0 0.0 0.00 0.00 0.00 80 1011.0
20260501223102 64 220 4.0 0.0 0.00 0.00 0.00 80 1011.0
20260501222552 64 189 3.0 0.0 0.00 0.00 0.00 79 1011.4
20260501222051 64 182 3.0 0.0 0.00 0.00 0.00 80 1011.4
20260501221550 64 229 4.0 0.0 0.00 0.00 0.00 81 1011.4
20260501221054 63 202 4.0 0.0 0.00 0.00 0.00 81 1011.5
20260501220550 63 360 3.0 0.0 0.00 0.00 0.00 80 1011.5
20260501220052 64 360 3.0 0.0 0.00 0.00 0.00 79 1011.5
20260501215550 63 205 3.0 0.0 0.00 0.00 0.00 80 1011.5
20260501215049 63 238 3.0 0.0 0.00 0.00 0.00 79 1011.5
20260501214549 63 221 3.0 0.0 0.00 0.00 0.00 80 1011.5
20260501214048 63 360 3.0 0.0 0.00 0.00 0.00 79 1011.9
20260501213546 63 159 3.0 0.0 0.00 0.00 0.00 81 1011.9
20260501213105 62 360 3.0 0.0 0.00 0.00 0.00 83 1011.9
20260501212545 62 123 3.0 0.0 0.00 0.00 0.00 83 1012.1
20260501212047 62 221 3.0 0.0 0.00 0.00 0.00 82 1012.1
20260501211544 62 204 4.0 0.0 0.00 0.00 0.00 82 1012.1
20260501211044 62 156 4.0 0.0 0.00 0.00 0.00 82 1012.1
20260501210544 62 158 3.0 0.0 0.00 0.00 0.00 82 1012.1
20260501210043 62 171 4.0 0.0 0.00 0.00 0.00 83 1012.1
20260501205544 62 207 4.0 0.0 0.00 0.00 0.00 83 1012.2
20260501205046 61 215 5.0 0.0 0.00 0.00 0.00 83 1012.2
20260501204548 61 234 5.0 0.0 0.00 0.00 0.00 83 1012.2
20260501204047 62 180 4.0 0.0 0.00 0.00 0.00 83 1012.2
20260501203543 62 360 4.0 0.0 0.00 0.00 0.00 84 1012.2
20260501203043 62 177 4.0 0.0 0.00 0.00 0.00 83 1012.2
20260501202543 61 155 4.0 0.0 0.00 0.00 0.00 84 1012.3
20260501202046 61 163 4.0 0.0 0.00 0.00 0.00 84 1012.3
20260501201542 61 225 4.0 0.0 0.00 0.00 0.00 83 1012.3
20260501201042 62 174 3.0 0.0 0.00 0.00 0.00 83 1012.6
20260501200547 62 187 4.0 0.0 0.00 0.00 0.00 85 1012.6
20260501200040 61 168 4.0 0.0 0.00 0.00 0.00 84 1012.6
20260501195540 61 144 4.0 0.0 0.00 0.00 0.00 83 1012.7
20260501195040 62 184 4.0 0.0 0.00 0.00 0.00 83 1012.7
20260501194543 62 177 3.0 0.0 0.00 0.00 0.00 83 1012.7
20260501194039 62 182 3.0 0.0 0.00 0.00 0.00 83 1012.7
20260501193540 62 181 4.0 0.0 0.00 0.00 0.00 83 1012.7
20260501193039 62 183 3.0 0.0 0.00 0.00 0.00 84 1012.7
20260501192539 62 204 3.0 0.0 0.00 0.00 0.00 83 1012.7
20260501192038 62 148 3.0 0.0 0.00 0.00 0.00 84 1012.7
20260501191538 62 188 3.0 0.0 0.00 0.00 0.00 84 1012.7
20260501191036 61 155 2.0 0.0 0.00 0.00 0.00 86 1012.9
20260501190535 61 171 2.0 0.0 0.00 0.00 0.00 87 1012.9
20260501190033 60 97 3.0 0.0 0.00 0.00 0.00 88 1012.9
20260501185534 60 148 3.0 0.0 0.00 0.00 0.00 88 1013.3
20260501185032 59 159 2.0 0.0 0.00 0.00 0.00 89 1013.3
20260501184531 59 148 2.0 0.0 0.00 0.00 0.00 89 1013.3
20260501184029 59 222 3.0 0.0 0.00 0.00 0.00 89 1013.5
20260501183528 59 173 3.0 0.0 0.00 0.00 0.00 89 1013.5
20260501183028 59 190 2.0 0.0 0.00 0.00 0.00 89 1013.5
20260501182528 58 146 2.0 0.0 0.00 0.00 0.00 89 1013.7
20260501182029 58 169 2.0 0.0 0.00 0.00 0.00 91 1013.7
20260501181526 58 229 2.0 0.0 0.00 0.00 0.00 91 1013.7
20260501181026 58 159 2.0 0.0 0.00 0.00 0.00 91 1013.8
20260501180525 58 178 2.0 0.0 0.00 0.00 0.00 91 1013.8
20260501180035 58 154 2.0 0.0 0.00 0.00 0.00 91 1013.8
20260501175524 57 151 2.0 0.0 0.00 0.00 0.00 92 1013.9
20260501175023 57 175 1.0 0.0 0.00 0.00 0.00 92 1013.9
20260501174524 57 167 1.0 0.0 0.00 0.00 0.00 92 1013.9
20260501174022 57 113 1.0 0.0 0.00 0.00 0.00 92 1014.0
20260501173522 57 65 1.0 0.0 0.00 0.00 0.00 92 1014.0
20260501173021 57 175 1.0 0.0 0.00 0.00 0.00 93 1014.0
20260501172521 56 204 2.0 0.0 0.00 0.00 0.00 93 1014.0
20260501172021 56 135 2.0 0.0 0.00 0.00 0.00 93 1014.0